Flag for Czech Republic Weather past 2 weeks in Liberec, Czech Republic

Now
81 °F

Sunny.


Feels Like: 80 °F
Forecast: 61 / 86 °F
Wind: 2 mph from South

Location: Liberec

Current Time: Jul 3, 2015 at 1:35:46 PM

Latest Report: Jul 3, 2015 at 12:00 PM


Visibility: 25 mi

Pressure: 30.27 "Hg

Humidity: 34%

Dew point: 50 °F

Location of LiberecLocation

Historic Weather in Liberec — Graph

°F

Liberec temperature yesterday

Maximum temperature yesterday: 83 °F (at 4:00 PM)
Minimum temperature yesterday: 56 °F (at 3:00 AM)
Average temperature yesterday: 71 °F

Past Weeks' High & Low Weather Summary

 TemperatureHumidityPressure
High83 °F (Jul 2, 4:00 PM)97% (Jun 19, 12:00 AM)30.30 "Hg (Jun 19, 12:00 AM)
Low42 °F (Jun 25, 2:00 AM)32% (Jul 2, 4:00 PM)29.67 "Hg (Jun 23, 7:00 AM)
Average59 °F73%30.07 "Hg
* Reported Jun 18 12:00 Noon — Jul 3 12:00 Noon, Liberec, Weather by CustomWeather, © 2015

Note: Actual official high and low records may vary slightly from our data, if they occured in-between our weather recording intervals... More about our weather records

Advertising

Liberec weather history for previous 24 hours

 ConditionsComfort  
Time TempWeatherWind HumidityBarometerVisibility
12:00 PM
Fri, Jul 3
81 °FSunny.2 mph34%30.27 "Hg25 mi
11:00 AM79 °FSunny.3 mph39%30.28 "Hg25 mi
10:00 AM77 °FSunny.5 mph36%30.28 "Hg22 mi
9:00 AM75 °FSunny.5 mph38%30.28 "Hg19 mi
8:00 AM73 °FSunny.3 mph46%30.29 "Hg16 mi
7:00 AM69 °FMild.3 mph50%30.29 "Hg12 mi
6:00 AM65 °FMild.2 mph59%30.30 "Hg12 mi
5:00 AM65 °FMild.2 mph59%30.30 "Hg12 mi
4:00 AM65 °FMild.3 mph58%30.29 "Hg12 mi
3:00 AM65 °FMild.2 mph58%30.29 "Hg12 mi
2:00 AM67 °FMild.3 mph56%30.28 "Hg12 mi
1:00 AM66 °FMild.2 mph59%30.28 "Hg12 mi
12:00 AM64 °FMild.2 mph61%30.28 "Hg12 mi
11:00 PM
Thu, Jul 2
66 °FMild.2 mph60%30.27 "Hg12 mi
10:00 PM67 °FClear.2 mph53%30.26 "Hg31 mi
9:00 PM70 °FSunny.1 mph48%30.24 "Hg31 mi
8:00 PM78 °FSunny.3 mph35%30.21 "Hg31 mi
7:00 PM81 °FPleasantly warm.3 mph33%30.20 "Hg12 mi
6:00 PM82 °FPleasantly warm.3 mph32%30.19 "Hg12 mi
5:00 PM82 °FPassing clouds.2 mph34%30.18 "Hg25 mi
4:00 PM83 °FScattered clouds.2 mph32%30.19 "Hg25 mi
3:00 PM82 °FScattered clouds.1 mph34%30.20 "Hg25 mi
2:00 PM81 °FScattered clouds.2 mph37%30.21 "Hg25 mi
1:00 PM79 °FPassing clouds.3 mph40%30.22 "Hg25 mi
Weather by CustomWeather, © 2015

See weather overviewHow to use our weather pages